Weather reports worldwide

Advertisment
Menorca/Mahon, Spain (8314): temperature & dewpoint: 18.08.2019 07:00:00 - 24.08.2019 07:00:00 (CEST)Menorca/Mahon, Spain (8314): wind speed: 18.08.2019 07:00:00 - 24.08.2019 07:00:00 (CEST)Menorca/Mahon, Spain (8314): wind direction: 18.08.2019 07:00:00 - 24.08.2019 07:00:00 (CEST)Menorca/Mahon, Spain (8314): reduced air pressure: 18.08.2019 07:00:00 - 24.08.2019 07:00:00 (CEST)Menorca/Mahon, Spain (8314): visibility: 18.08.2019 07:00:00 - 24.08.2019 07:00:00 (CEST)
Date & Time tt [°C] td [°C] ff [km/h] ff [kn] dd ppp [hPa] vv [km]
24.08.2019 07:00:00 21,4 20,2 11 6 N 1018,1 -
24.08.2019 06:00:00 21,1 19,7 11 6 N 1018,1 -
24.08.2019 05:00:00 21,4 19,9 8 4 N 1018,2 -
24.08.2019 04:00:00 20,9 19,2 5 3 NNW 1018,3 -
24.08.2019 03:00:00 21,7 19,6 4 2 N 1018,3 -
24.08.2019 02:00:00 22,6 20,3 9 5 ENE 1018,5 -
24.08.2019 01:00:00 23,1 20,6 9 5 ENE 1018,7 -
24.08.2019 00:00:00 23,1 20,6 11 6 NE 1018,6 -
23.08.2019 23:00:00 23,5 20,6 9 5 NE 1018,4 20
23.08.2019 22:00:00 23,5 20,4 15 8 N 1018,4 -
23.08.2019 21:00:00 24,1 20,4 15 8 NNE 1018,1 -
23.08.2019 20:00:00 25,2 20,3 13 7 NE 1017,9 20
23.08.2019 19:00:00 26,0 20,1 15 8 NE 1017,9 -
23.08.2019 18:00:00 26,4 19,7 15 8 ENE 1018,1 -
23.08.2019 17:00:00 28,6 19,8 16 9 NE 1018,2 25
23.08.2019 16:00:00 29,6 19,0 13 7 ENE 1018,1 -
23.08.2019 15:00:00 28,3 19,0 13 7 NE 1018,8 20
23.08.2019 14:00:00 28,4 19,7 16 9 ENE 1019,2 20
23.08.2019 13:00:00 27,0 20,1 16 9 NNE 1019,4 -
23.08.2019 12:00:00 27,5 19,4 18 10 NNE 1019,4 -
23.08.2019 11:00:00 27,3 18,8 18 10 NNE 1019,3 28
23.08.2019 10:00:00 26,4 19,5 18 10 N 1019,3 -
23.08.2019 09:00:00 24,3 20,0 18 10 N 1018,9 30
23.08.2019 08:00:00 22,0 19,4 13 7 N 1018,8 30
23.08.2019 07:00:00 21,0 18,9 13 7 N 1018,8 -
23.08.2019 06:00:00 20,2 18,3 13 7 N 1018,7 -
23.08.2019 05:00:00 20,1 18,2 11 6 NNW 1018,7 -
23.08.2019 04:00:00 19,5 17,5 9 5 NNW 1018,8 -
23.08.2019 03:00:00 19,6 17,7 11 6 NNW 1018,8 -
23.08.2019 02:00:00 20,1 18,2 9 5 NNW 1019,1 -
23.08.2019 01:00:00 20,2 18,1 9 5 N 1019,4 -
23.08.2019 00:00:00 20,3 17,9 8 4 NW 1019,5 -
22.08.2019 23:00:00 21,3 18,5 9 5 N 1019,3 35
22.08.2019 22:00:00 22,0 18,6 18 10 NNE 1018,9 -
22.08.2019 21:00:00 22,5 18,7 18 10 NNE 1018,5 -
22.08.2019 20:00:00 23,7 18,1 22 12 NNE 1018,2 40
22.08.2019 19:00:00 25,0 18,0 24 13 N 1018,0 -
22.08.2019 18:00:00 25,8 17,4 26 14 N 1018,3 -
22.08.2019 17:00:00 26,2 17,6 29 16 N 1018,6 35
22.08.2019 16:00:00 26,6 17,2 35 19 N 1018,6 -
22.08.2019 15:00:00 27,1 17,3 34 18 N 1018,7 30
22.08.2019 14:00:00 28,0 16,4 37 20 NNE 1018,7 30
22.08.2019 13:00:00 27,4 16,4 34 18 N 1018,8 -
22.08.2019 12:00:00 27,5 15,9 35 19 N 1018,7 -
22.08.2019 11:00:00 26,7 18,0 29 16 N 1018,5 30
22.08.2019 10:00:00 26,0 18,4 22 12 N 1018,3 -
22.08.2019 09:00:00 24,4 18,3 22 12 N 1018,4 30
22.08.2019 08:00:00 22,7 16,9 11 6 N 1018,0 25
22.08.2019 07:00:00 22,2 16,2 13 7 N 1017,6 -
22.08.2019 06:00:00 21,9 15,5 18 10 N 1017,4 -
22.08.2019 05:00:00 22,0 15,8 21 11 N 1017,5 -
22.08.2019 04:00:00 21,1 16,7 16 9 N 1017,7 -
22.08.2019 03:00:00 18,8 14,9 9 5 N 1018,0 -
22.08.2019 02:00:00 19,2 15,1 9 5 NNW 1018,3 -
22.08.2019 01:00:00 19,0 14,3 4 2 NNE 1018,3 -
22.08.2019 00:00:00 19,4 14,2 5 3 NNW 1018,7 -
21.08.2019 23:00:00 21,0 14,4 11 6 N 1018,3 17
21.08.2019 22:00:00 21,4 12,5 9 5 N 1018,5 -
21.08.2019 21:00:00 22,4 13,5 13 7 N 1018,1 -
21.08.2019 20:00:00 23,1 13,8 18 10 N 1017,8 20
21.08.2019 19:00:00 25,1 13,9 29 16 N 1017,3 -
21.08.2019 18:00:00 25,6 13,1 22 12 N 1017,7 -
21.08.2019 17:00:00 26,6 14,0 24 13 N 1018,1 25
21.08.2019 16:00:00 27,3 13,3 24 13 N 1018,4 -
21.08.2019 15:00:00 26,9 13,6 31 17 N 1018,9 45
21.08.2019 14:00:00 27,0 12,9 29 16 N 1019,2 45
21.08.2019 13:00:00 26,5 14,2 26 14 NNE 1019,4 -
21.08.2019 12:00:00 26,2 13,2 26 14 NNE 1019,9 -
21.08.2019 11:00:00 25,6 13,3 29 16 NNE 1019,9 45
21.08.2019 10:00:00 24,6 14,4 34 18 NNE 1019,8 -
21.08.2019 09:00:00 23,7 14,7 29 16 N 1019,9 40
21.08.2019 08:00:00 22,4 15,3 24 13 NNE 1019,6 35
21.08.2019 07:00:00 21,1 16,7 22 12 NNE 1019,5 -
21.08.2019 06:00:00 21,3 16,7 24 13 NNE 1019,2 -
21.08.2019 05:00:00 21,5 16,5 26 14 NNE 1019,4 -
21.08.2019 04:00:00 21,8 16,7 29 16 NNE 1019,4 -
21.08.2019 03:00:00 21,8 16,5 26 14 NNE 1019,8 -
21.08.2019 02:00:00 22,1 16,7 31 17 NNE 1019,6 -
21.08.2019 01:00:00 22,2 18,0 34 18 NNE 1019,5 -
21.08.2019 00:00:00 22,5 17,2 37 20 NNE 1019,5 -
20.08.2019 23:00:00 22,4 18,4 42 23 NNE 1019,6 15
20.08.2019 22:00:00 23,1 18,8 35 19 NNE 1019,4 -
20.08.2019 21:00:00 22,9 19,1 31 17 NNE 1018,7 -
20.08.2019 20:00:00 23,3 18,2 39 21 NNE 1018,4 18
20.08.2019 19:00:00 24,4 18,8 37 20 NNE 1018,2 -
20.08.2019 18:00:00 25,5 18,7 39 21 NNE 1018,2 -
20.08.2019 17:00:00 26,0 19,2 39 21 NNE 1018,3 18
20.08.2019 16:00:00 26,2 18,9 39 21 NNE 1018,1 -
20.08.2019 15:00:00 27,2 20,2 34 18 NNE 1017,7 18
20.08.2019 14:00:00 27,7 20,9 34 18 NNE 1017,4 30
20.08.2019 13:00:00 28,8 20,3 24 13 NE 1017,2 -
20.08.2019 12:00:00 29,1 20,8 22 12 ENE 1017,0 -
20.08.2019 11:00:00 28,2 21,0 24 13 NE 1016,6 30
20.08.2019 10:00:00 26,6 20,7 26 14 NE 1016,0 -
20.08.2019 09:00:00 26,1 21,5 22 12 ENE 1015,8 30
20.08.2019 08:00:00 24,7 21,4 13 7 ENE 1015,7 30
20.08.2019 07:00:00 23,6 21,5 11 6 ENE 1015,4 -
20.08.2019 06:00:00 23,3 21,2 11 6 ENE 1015,5 -
20.08.2019 05:00:00 23,4 21,1 11 6 E 1015,5 18
20.08.2019 04:00:00 23,6 21,5 9 5 ENE 1015,7 -
20.08.2019 03:00:00 23,7 21,6 11 6 E 1015,9 -
20.08.2019 02:00:00 24,1 22,4 15 8 ENE 1016,2 15
20.08.2019 01:00:00 24,6 23,0 15 8 ENE 1016,4 -
20.08.2019 00:00:00 24,2 22,6 9 5 ENE 1016,5 -
19.08.2019 23:00:00 24,6 22,8 9 5 ENE 1016,5 15
19.08.2019 22:00:00 24,8 22,7 11 6 ENE 1016,2 -
19.08.2019 21:00:00 25,4 22,7 8 4 E 1015,8 -
19.08.2019 20:00:00 26,5 22,6 13 7 SSE 1015,6 19
19.08.2019 19:00:00 27,8 22,3 15 8 SE 1015,4 -
19.08.2019 18:00:00 28,4 22,2 18 10 SSE 1015,5 -
19.08.2019 17:00:00 28,3 21,8 22 12 SSE 1015,5 25
19.08.2019 16:00:00 29,5 21,5 21 11 SE 1015,8 -
19.08.2019 15:00:00 29,9 20,7 21 11 SSE 1016,0 25
19.08.2019 14:00:00 30,1 21,1 22 12 SE 1015,8 25
19.08.2019 13:00:00 29,8 21,9 18 10 SE 1015,8 -
19.08.2019 12:00:00 29,4 22,0 18 10 ESE 1015,9 -
19.08.2019 11:00:00 29,1 21,7 16 9 ESE 1015,3 22
19.08.2019 10:00:00 28,1 22,6 13 7 E 1014,8 -
19.08.2019 09:00:00 26,1 23,2 15 8 ENE 1014,6 17
19.08.2019 08:00:00 24,2 23,2 11 6 NE 1014,4 12
19.08.2019 07:00:00 22,8 21,8 13 7 ENE 1013,9 -
19.08.2019 06:00:00 22,3 21,3 11 6 NNE 1013,8 -
19.08.2019 05:00:00 23,7 22,5 5 3 SE 1013,5 13
19.08.2019 04:00:00 23,8 22,4 9 5 S 1013,7 -
19.08.2019 03:00:00 24,1 22,7 13 7 SSE 1013,8 -
19.08.2019 02:00:00 24,3 22,6 13 7 S 1014,1 13
19.08.2019 01:00:00 24,3 22,6 13 7 S 1014,2 -
19.08.2019 00:00:00 24,4 22,1 11 6 SSE 1013,8 -
18.08.2019 23:00:00 24,8 22,5 9 5 SE 1013,4 15
18.08.2019 22:00:00 25,0 22,1 11 6 SE 1013,0 -
18.08.2019 21:00:00 25,5 22,0 13 7 SE 1012,5 -
18.08.2019 20:00:00 27,0 22,0 18 10 SE 1012,7 20
18.08.2019 19:00:00 27,8 21,8 21 11 SSE 1012,4 -
18.08.2019 18:00:00 29,1 21,8 22 12 SE 1012,7 -
18.08.2019 17:00:00 29,8 21,0 22 12 SE 1012,9 30
18.08.2019 16:00:00 29,9 19,4 21 11 SSE 1013,4 -
18.08.2019 15:00:00 30,7 19,3 21 11 SE 1013,6 30
18.08.2019 14:00:00 30,3 19,6 21 11 SE 1013,8 25
18.08.2019 13:00:00 30,4 19,8 16 9 ESE 1014,0 -
18.08.2019 12:00:00 29,4 20,7 16 9 ESE 1013,9 -
18.08.2019 11:00:00 28,4 20,8 18 10 ESE 1013,7 25
18.08.2019 10:00:00 27,7 21,3 18 10 E 1013,5 -
18.08.2019 09:00:00 26,3 21,9 15 8 ESE 1013,5 20
18.08.2019 08:00:00 24,8 21,9 8 4 ESE 1013,5 20
18.08.2019 07:00:00 23,5 21,0 9 5 SE 1013,9 -

tt = temperature
td = dewpoint
ff = wind speed
dd = wind direction
ppp = reduced air pressure
vv = visibility

Next stations